Weather History for KNUW - April, 2014

Change the Weather History Date:

Monday, April 7, 2014

  Actual Average Record
Temperature  
Mean Temperature 58 °F -  
Max Temperature 64 °F 51 °F 64 °F (2014)
Min Temperature 52 °F 37 °F 30 °F (2012)
Degree Days  
Heating Degree Days 7    
Growing Degree Days 8 (Base 50)    
Moisture  
Dew Point 48 °F    
Average Humidity 74    
Maximum Humidity 83    
Minimum Humidity 60    
Precipitation  
Precipitation 0.00 in - - ()
Sea Level Pressure  
Sea Level Pressure 30.22 in    
Wind  
Wind Speed 7 mph (SSE)    
Max Wind Speed 10 mph    
Max Gust Speed -    
Visibility 10 miles    
Events      
Averages and records for this station are not official NWS values.
T = Trace of Precipitation, MM = Missing Value Source: NWS Daily Summary

Daily Weather History Graph

Daily Weather History Graph

Search for Another Location

Airport or City:

Trip Planner

Search our weather history database for the weather conditions in past years. The results will help you decide how hot, cold, wet, or windy it might be!

Date:

Astronomy

Apr. 07, 2014 Rise Set
Actual Time 6:36 AM PDT 7:50 PM PDT
Civil Twilight 6:04 AM PDT 8:22 PM PDT
Nautical Twilight 5:25 AM PDT 9:01 PM PDT
Astronomical Twilight 4:43 AM PDT 9:42 PM PDT
Moon 12:25 PM PDT (4/7) 2:43 AM PDT (4/7)
Length of Visible Light 14h 18m
Length of Day
13h 13m
First Quarter, 54% of the Moon is Illuminated
Apr 7
First Quarter
Apr 15
Full
Apr 22
Last Quarter
Apr 28
New
May 6
First Quarter

Hourly Weather History & Observations

Time (PDT) Temp. Dew Point Humidity Pressure Visibility Wind Dir Wind Speed Gust Speed Precip Events Conditions
12:56 AM 54.0 °F 46.0 °F 75% 30.30 in 10.0 mi SE 5.8 mph - N/A   Overcast
1:19 AM 54.0 °F 46.9 °F 77% 30.29 in 10.0 mi SE 9.2 mph - N/A   Overcast
1:56 AM 54.0 °F 46.9 °F 77% 30.30 in 10.0 mi SE 9.2 mph - N/A   Overcast
2:56 AM 55.0 °F 46.9 °F 74% 30.30 in 10.0 mi SE 10.4 mph - N/A   Overcast
3:56 AM 55.0 °F 46.9 °F 74% 30.30 in 10.0 mi SE 6.9 mph - N/A   Overcast
4:56 AM 54.0 °F 46.9 °F 77% 30.30 in 10.0 mi SE 4.6 mph - N/A   Overcast
5:56 AM 54.0 °F 46.9 °F 77% 30.29 in 10.0 mi ESE 4.6 mph - N/A   Overcast
6:45 AM 53.1 °F 46.9 °F 80% 30.27 in 10.0 mi ESE 4.6 mph - N/A   Overcast
6:56 AM 53.1 °F 46.9 °F 80% 30.28 in 10.0 mi ESE 4.6 mph - N/A   Overcast
7:56 AM 54.0 °F 48.0 °F 80% 30.28 in 10.0 mi East 4.6 mph - N/A   Overcast
8:56 AM 57.0 °F 48.0 °F 72% 30.27 in 10.0 mi East 9.2 mph - N/A   Overcast
9:56 AM 60.1 °F 48.9 °F 67% 30.25 in 10.0 mi SE 9.2 mph - N/A   Mostly Cloudy
10:56 AM 62.1 °F 50.0 °F 65% 30.25 in 10.0 mi SE 5.8 mph - N/A   Mostly Cloudy
11:56 AM 64.0 °F 50.0 °F 60% 30.23 in 10.0 mi SE 4.6 mph - N/A   Mostly Cloudy
12:56 PM 59.0 °F 48.0 °F 67% 30.22 in 10.0 mi NNW 9.2 mph - N/A   Mostly Cloudy
1:56 PM 62.1 °F 48.9 °F 62% 30.19 in 10.0 mi NNW 9.2 mph - N/A   Overcast
2:56 PM 62.1 °F 48.0 °F 60% 30.17 in 10.0 mi NNW 10.4 mph - N/A   Mostly Cloudy
3:56 PM 60.1 °F 50.0 °F 69% 30.15 in 10.0 mi WSW 9.2 mph - N/A   Mostly Cloudy
4:56 PM 57.9 °F 48.9 °F 72% 30.13 in 10.0 mi WSW 9.2 mph - N/A   Mostly Cloudy
5:56 PM 57.9 °F 48.9 °F 72% 30.12 in 10.0 mi WSW 5.8 mph - N/A   Mostly Cloudy
6:56 PM 57.0 °F 48.0 °F 72% 30.11 in 10.0 mi Calm Calm - N/A   Mostly Cloudy
7:56 PM 54.0 °F 46.9 °F 77% 30.11 in 10.0 mi SW 9.2 mph - N/A   Mostly Cloudy
8:56 PM 52.0 °F 46.9 °F 83% 30.13 in 10.0 mi West 4.6 mph - N/A   Mostly Cloudy
9:56 PM 52.0 °F 46.0 °F 80% 30.14 in 10.0 mi SW 3.5 mph - N/A   Mostly Cloudy
10:56 PM 52.0 °F 46.9 °F 83% 30.15 in 10.0 mi SW 6.9 mph - N/A   Scattered Clouds
11:56 PM 52.0 °F 46.9 °F 83% 30.15 in 10.0 mi SW 4.6 mph - N/A   Scattered Clouds